Regional Weather Roundup
Issued by NWS

Home | Current Version | Previous Version | Graphics & Text | Print | Product List | Glossary On
Versions: 1 2 3 4 5 6 7 8 9 10 11 12 13 14 15 16 17 18 19 20 21 22 23 24 25 26 27 28 29 30 31 32 33 34 35 36 37 38 39 40 41 42 43 44 45 46 47 48 49 50
806
ASUS44 KLIX 010301
RWRLA
LOUISIANA WEATHER ROUNDUP
NATIONAL WEATHER SERVICE NEW ORLEANS LA
1000 PM CDT TUE SEP 30 2014

NOTE: "FAIR" INDICATES FEW OR NO CLOUDS BELOW 12,000 FEET WITH NO
      SIGNIFICANT WEATHER AND/OR OBSTRUCTIONS TO VISIBILITY.
      SKY/WX - SKY CONDITION AND SIGNIFICANT WEATHER.
      TMP - AIR TEMPERATURE.    DP   - DEWPOINT TEMPERATURE.
      RH  - RELATIVE HUMIDITY.  PRES - PRESSURE.
      HX  - HEAT INDEX.         WCI  - WIND CHILL INDEX.

*  THESE STATIONS ARE NOT NWS OR FAA STATIONS AND ARE NOT UNDER
   NWS QUALITY CONTROL.

LAZ040-048-061>063-065-066-069-010400-
SOUTHEAST LOUISIANA

CITY           SKY/WX    TMP DP  RH WIND       PRES   REMARKS
N.O. AUDUBON     N/A     79  75  90 MISG        N/A
N.O. INTL ARPT PTCLDY    78  72  81 SE8       29.87S
N.O. LAKEFRONT CLEAR     77  72  84 SE8       29.88S
N.O. DOWNTOWN* FAIR      79  70  73 SE6       29.89S
SLIDELL        CLEAR     73  70  90 CALM      29.88S
BATON ROUGE    CLEAR     76  70  82 SE6       29.87R
BOOTHVILLE     CLEAR     77  74  90 SE5       29.89R
BELLE CHASSE   PTCLDY    77  71  82 E5        29.88S
BOGALUSA*        N/A     76  71  85 CALM      29.90S
GALLIANO*      NOT AVBL
NEW ROADS*     FAIR      77  70  79 E3        29.86R
GONZALES*      FAIR      77  77 100 CALM      29.87R
HAMMOND*       NOT AVBL
HOUMA*         PTCLDY   N/A N/A N/A E5        29.87S
PORT FOURCHON* PTCLDY    81  73  78 E10       29.90F

$$

LAZ041-044-053-054-010400-
SOUTHWEST LOUISIANA

CITY           SKY/WX    TMP DP  RH WIND       PRES   REMARKS
LAKE CHARLES   CLEAR     76  74  93 SE5       29.83S
LAFAYETTE      PTCLDY    77  74  90 CALM      29.85R
PATTERSON      MOCLDY    75  73  94 SE5         N/A
SALT POINT       N/A     80  76  87 SE3       29.85R
NEW IBERIA     CLEAR     76  73  91 SE3       29.85S
CHENAULT AIRPK CLEAR     74  73  95 SE5       29.84S

$$

LAZ027-028-010400-
CENTRAL LOUISIANA

CITY           SKY/WX    TMP DP  RH WIND       PRES   REMARKS
FORT POLK      PTCLDY    76  73  90 VRB1      29.84R
ALEXANDRIA INT CLEAR     77  71  82 CALM      29.83R
ALEXANDRIA     CLEAR     73  71  93 CALM      29.85R

$$

LAZ001-002-010400-
NORTHWEST LOUISIANA

CITY           SKY/WX    TMP DP  RH WIND       PRES   REMARKS
SHREVEPORT     PTCLDY    79  68  69 S5        29.82S
BARKSDALE AFB  MOCLDY    77  68  73 SE5       29.83R
DTN SHREVEPORT PTCLDY    80  67  64 SE7       29.82S

$$

LAZ014-016-010400-
NORTHEAST LOUISIANA

CITY           SKY/WX    TMP DP  RH WIND       PRES   REMARKS
MONROE         CLEAR     73  67  81 CALM      29.86R
TALLULAH       CLEAR     69  67  93 SE3       29.87R

$$




USA.gov is the U.S. government's official web portal to all federal, state and local government web resources and services.